Regional Weather Roundup
Issued by NWS

Home | Current Version | Previous Version | Text Only | Print | Product List | Glossary On
Versions: 1 2 3 4 5 6 7 8 9 10 11 12 13 14 15 16 17 18 19 20 21 22 23 24 25 26 27 28 29 30 31 32 33 34 35 36 37 38 39 40 41 42 43 44 45 46 47 48 49 50
000
ASUS44 KLUB 302310
RWRTX
WEST TEXAS WEATHER ROUNDUP
NATIONAL WEATHER SERVICE LUBBOCK TX
600 PM CDT SUN APR 30 2017

NOTE: "FAIR" INDICATES FEW OR NO CLOUDS BELOW 12,000 FEET WITH NO
SIGNIFICANT WEATHER AND/OR OBSTRUCTIONS TO VISIBILITY.

TXZ004-006>008-010-012-014-016-OKZ002-010000-
TEXAS PANHANDLE/OKLAHOMA PANHANDLE

CITY           SKY/WX    TMP DP  RH WIND       PRES   REMARKS
AMARILLO       CLOUDY    53  22  29 NW31G48   29.83F
BORGER         CLOUDY    47  32  56 N16       29.84F
CANADIAN       CLOUDY    43  36  76 NW35G44   29.79S
HEREFORD       CLOUDY    58  27  31 NW26      29.88F
PAMPA          CLOUDY    43  33  66 N28G36    29.82S
PERRYTON       CLOUDY    39  35  86 N28G38    29.77S WCI  28
$$

TXZ026-029-035-045-048-010000-
SOUTHERN PANHANDLE/SOUTH PLAINS/ROLLING PLAINS

CITY           SKY/WX    TMP DP  RH WIND       PRES   REMARKS
CHILDRESS      PTSUNNY   53  34  48 NW25G37   29.85F
SEMINOLE       SUNNY     69  27  20 NW16G25   29.92S
LUBBOCK        MOSUNNY   64  22  20 NW18G33   29.89F
PLAINVIEW      SUNNY     57  24  27 NW24G33   29.88S
SNYDER         SUNNY    N/A N/A N/A W15G26    29.93S
$$

TXZ052-054-060>062-072-078-127-140-154-169-010000-
PERMIAN BASIN/CONCHO VALLEY/BIG COUNTRY/EDWARDS PLATEAU

CITY           SKY/WX    TMP DP  RH WIND       PRES   REMARKS
ABILENE        SUNNY     67  31  26 W17G37    29.88R
BIG SPRING     MOSUNNY   68  32  26 W16G25    29.94F
BROWNWOOD      SUNNY     70  32  24 NW23G35   29.89S
JUNCTION       SUNNY     77  28  16 W16G28    29.89F
MIDLAND        MOSUNNY   72  28  19 W16G28    29.91F
ODESSA         MOSUNNY   73  27  18 W15       29.92F
SAN ANGELO     SUNNY     74  28  18 NW17G29   29.90F
SONORA         SUNNY     75  27  16 W12G21    29.94F
SWEETWATER     SUNNY     66  28  23 W20G32    29.94S
WINK           SUNNY     74  22  14 W16       29.89F
$$

TXZ055-058-074-075-080-082-010000-
FAR WEST/SOUTHWEST MOUNTAINS/TRANS PECOS

CITY           SKY/WX    TMP DP  RH WIND       PRES   REMARKS
ALPINE         SUNNY     72   8   8 W14G26    30.05S
DRYDEN           N/A     82   9   6 W16G29    29.86F
EL PASO        MOSUNNY   75   8   7 W17G26    29.96F
FORT STOCKTON  SUNNY     74  16  11 W16G30    29.93F
GUADALUPE PASS SUNNY     65  16  15 W38G52    29.97S
MARFA          SUNNY     69   5   8 W23G35    30.04F
PECOS          SUNNY     76  17  10 W22G30    29.89F
PRESIDIO       FAIR      81   6   6 SW14G28   29.96F
$$

TXZ014-016-019-021>030-083-010000
TEXAS TECH WEST TEXAS MESONET/TEXAS PANHANDLE/NORTHERN SOUTH PLAINS

CITY           SKY/WX    TMP DP  RH WIND       PRES   REMARKS
ABERNATHY 5ENE   N/A     60  22  23 NW21      29.90R
AMARILLO 9NNE    N/A     53  26  36 NW29G41   29.84S
AMARILLO 7SSE    N/A     53  21  29 NW23      29.86R
AMHERST 1NE      N/A     61  26  25 W12       29.90S
BOOTLEG 11WNW    N/A     55  31  39 W9        29.92F
CANADIAN 6E      N/A     42  34  71 NW35      29.74S
CAPROCK CYN SP   N/A     56  23  27 NW14      29.86S
CHILDRESS 2NNE   N/A     53  34  48 NW24      29.84F
CLARENDON 2WSW   N/A     51  31  46 NW24      29.84S
CLAUDE 12SW      N/A     53  23  31 NW30      29.84S
DIMMITT 2NE      N/A     55  29  37 W20       29.89S
FLOYDADA 2NNE    N/A     58  22  24 NW25      29.87S
FRIONA 2NE       N/A     57  28  32 NW13      29.91S
GOODLETT 3W      N/A     53  33  46 NW29G40   29.85S
HART 3N          N/A     57  24  27 NW24      29.89R
HEREFORD 2NW     N/A     54  29  38 NW16      29.89S
MCLEAN 1E        N/A     44  31  61 NW30G40   29.80S
MEMPHIS 1NE      N/A     53  34  49 NW22G32   29.84F
MULESHOE 2SSW    N/A     62  26  25 W10       29.90S
OLTON 6S         N/A     60  25  26 NW17      29.89S
PALO DURO SP     N/A     56  21  25 NW31      29.86S
PAMPA 2E         N/A     41  32  70 NW26      29.81S
PLAINVIEW 1S     N/A     58  26  29 NW22G35   29.87F
SILVERTON 7ESE   N/A     56  23  27 NW26      29.85F
TULIA 2ENE       N/A     55  28  34 NW31      29.87S
TURKEY 2WSW      N/A     57  25  28 NW21      29.85R
UMBARGER 3NNE    N/A     55  28  36 NW28      29.86F
$$

TXZ033>036-039>041-045>048-010000
TEXAS TECH WEST TEXAS MESONET/SOUTH PLAINS

CITY           SKY/WX    TMP DP  RH WIND       PRES   REMARKS
AIKEN 3WSW       N/A     58  27  30 NW24      29.88F
ANDREWS 2NE      N/A     70  25  18 W14       29.91F
ANTON 6SSW       N/A     63  27  25 W12       29.90S
BROWNFIELD 2S    N/A     65  33  30 NW7       29.91F
DENVR CTY 7WNW   N/A     66  26  22 W15       29.90S
GAIL 2ESE        N/A     67  32  27 W12       29.91S
LAMESA 2SE       N/A     67  32  28 NW9       29.92S
LEVELLAND 4S     N/A     63  27  25 W12       29.91F
LUBBOCK 3WNW     N/A     64  23  21 NW15      29.90S
MORTON 1ENE      N/A     63  28  26 W9G22     29.90F
ODONNELL 1N      N/A     64  28  25 W13       29.91F
PLAINS 3N        N/A     65  30  26 NW8       29.91S
RALLS 1SE        N/A     61  16  17 NW28      29.90S
REESE CENTER     N/A     63  23  21 NW16      29.90S
SEAGRAVES 1SW    N/A     67  31  26 NW13      29.90F
SEMINOLE 2NNE    N/A     68  27  21 NW10      29.90S
SLATON 2NE       N/A     64  20  18 W20       29.89F
SNYDER 3E        N/A     65  30  26 NW20G30   29.91S
SUNDOWN 8SW      N/A     65  31  28 W13       29.91F
TAHOKA 3NNE      N/A     64  26  24 W14       29.91F
WOLFFORTH 6SSW   N/A     63  25  23 W13       29.91S
$$

TXZ031-032-036>038-042>044-010000-
TEXAS TECH WEST TEXAS MESONET/ROLLING PLAINS

CITY           SKY/WX    TMP DP  RH WIND       PRES   REMARKS
ASPERMONT 3NE    N/A     67  18  15 NW24G36   29.87S
FLUVANNA 3WNW    N/A     65  26  22 W18       29.91S
GRAHAM 5SSW      N/A     64  25  23 W20       29.91S
GUTHRIE 10WSW    N/A     64  19  18 NW31G43   29.86F
HASKELL 1NW      N/A     64  28  25 NW17      29.86S
JAYTON 1SSE      N/A     66  19  16 NW26      29.87S
KNOX CITY 3NW    N/A     63  30  29 NW18      29.87S
LK A HENRY 1NW   N/A     68  19  15 W14       29.88F
NORTHFIELD 1S    N/A     58  31  36 NW15      29.85F
ODELL 4ENE       N/A     50  35  56 W25       29.85R
PADUCAH 10SW     N/A     60  29  30 NW20      29.85F
POST 1NE         N/A     67  20  16 W17       29.89S
RRING SPRGS 3N   N/A     60  22  22 NW24G36   29.86S
SEYMOUR 3NW      N/A     59  29  33 NW31G41   29.87S
SPUR 1W          N/A     65  15  14 NW32G45   29.86F
WEINERT 2NNE     N/A     61  32  33 NW20      29.87S
WHITE RVR 6NE    N/A     65  17  16 W31       29.87F
$$

TXZ052-054-060>062-072-078-127-140-154-169-010000-
TEXAS TECH WEST TEXAS MESONET/PERMIAN BASIN/
CONCHO VALLEY/BIG COUNTRY/EDWARDS PLATEAU

CITY           SKY/WX    TMP DP  RH WIND       PRES   REMARKS
COYANOSA 2N      N/A     76  17  10 NW21      29.91F
JUNCTION 1SSW    N/A     75  28  17 NW10      29.90S
MERTZON 3NNE     N/A     73  29  20 W15       29.92F
SAN ANGELO 7NW   N/A     72  27  18 W17       29.91S
STRLNG CT 4WSW   N/A     71  31  23 W13       29.93S
ST LAWRNCE 5SW   N/A     71  27  19 W20G30    29.92S
SWEETWATR 11SW   N/A     66  32  28 NW25      29.92F
WALL 1E          N/A     74  31  21 W20       29.91F
$$

TXZ055-058-074-075-080-082-010000-
TEXAS TECH WEST TEXAS MESONET/FAR WEST/SOUTHWEST MOUNTAINS/TRANS PECOS

CITY           SKY/WX    TMP DP  RH WIND       PRES   REMARKS
PRSMN GAP BBNP   N/A     80  12   7 SW8       29.92F
GUADLPE MTN NP   N/A     61  12  14 W22G32    29.98F
$$




USA.gov is the U.S. government's official web portal to all federal, state and local government web resources and services.